星链-3691 (STARLINK-3691 )

导读

STARLINK-3691是美国太空探索技术公司(SpaceX)星链计划中的一颗卫星,于2022年3月9日发射升空,属于星链互联网卫星组网的组成部分。星链计划旨在通过大规模低轨卫星星座,为全球提供高速互联网接入服务,该卫星进一步补充了星链星座的覆盖能力与服务稳定性。

Basic Information
目录编号:
51960
目录名称:
STARLINK-3691
国际标识:
2022-025E
轨道中心:
EARTH
卫星名称:
星链-3691
卫星全名:
星链-3691 (STARLINK-3691 )
卫星状态:
在轨 (已飞行1640 天)
发射日期:
2022-03-09 UTC
国别 :
美国 (US)
星等 :
--
Orbit Information
数据来源 国际轨道数据 AOE轨道数据
星历时间 2026-09-04T10:39:39+0800
8小时前
查看轨道信息
2026-09-01T03:00:00+0800
3天前
查看轨道信息
半长轴 6848.884km 6848.842km
偏心率 0.0001325 0.0001336
轨道倾角 53.159° 53.159°
近地点辐角 82.800° 69.351°
升交点赤经 286.371° 301.825°
平近点角 277.315° 338.036°
近地点 469.839km 469.789km
远地点 471.655km 471.621km
周期 94.013分钟 94.012分钟
每日圈数 15.316977 15.317118
Detailed Information
固有亮度:
5
最大亮度:
2.5
卫星平台:
Starlink v1.5
覆盖范围:
全球
运营商:
太空探索技术公司
运营商所在国:
美国
制造商(研发单位):
太空探索技术公司
制造商所在国:
美国
使用方式:
暂无
Satellite Introduction
星链(Starlink)计划是由太空探索技术公司(SpaceX)提出的一个巨型低轨卫星互联网星座项目,计划在2019年至2024年间在太空搭建由约1.2万颗卫星组成的“星链”网络,其中1584颗将部署在地球上空550千米处的近地轨道,并从2020年开始工作。该卫星仍在工作。
2D Orbit Map
3D Orbit Map
Orbit Altitude Analysis Chart
Orbit Inclination Analysis Chart
Orbit Comprehensive Analysis Chart
View Comprehensive Chart